Beatrice, NE

1:49 AM CST on December 16, 2019 (GMT -0600)
Beatrice Municipal

Weather History for KBIE - October, 2019

Change the Weather History Date:

Wednesday, October 9, 2019

  Actual Average Record
Temperature  
Mean Temperature 62 °F -  
Max Temperature 68 °F 70 °F 88 °F (1980)
Min Temperature 56 °F 46 °F 23 °F (2000)
Degree Days  
Heating Degree Days 3    
Growing Degree Days 12 (Base 50)    
Moisture  
Dew Point 54 °F    
Average Humidity 77    
Maximum Humidity 94    
Minimum Humidity 70    
Precipitation  
Precipitation 0.06 in - - ()
Sea Level Pressure  
Sea Level Pressure 29.81 in    
Wind  
Wind Speed 13 mph (SSE)    
Max Wind Speed 28 mph    
Max Gust Speed 34 mph    
Visibility 10 miles    
Events Rain , Thunderstorm    
Averages and records for this station are not official NWS values.
T = Trace of Precipitation, MM = Missing Value Source: NWS Daily Summary

Daily Weather History Graph

Daily Weather History Graph

Search for Another Location

Airport or City:

Astronomy

Oct. 09, 2019 Rise Set
Actual Time 7:31 AM CDT 6:56 PM CDT
Civil Twilight 7:04 AM CDT 7:23 PM CDT
Nautical Twilight 6:32 AM CDT 7:55 PM CDT
Astronomical Twilight 6:00 AM CDT 8:26 PM CDT
Moon 5:29 PM CDT (10/9) 3:18 AM CDT (10/9)
Length of Visible Light 12h 19m
Length of Day
11h 25m
Waxing Gibbous, 85% of the Moon is Illuminated
Oct 9
Waxing Gibbous
Oct 13
Full
Oct 21
Last Quarter
Oct 27
New
Nov 4
First Quarter

Hourly Weather History & Observations

Time (CDT) Temp. Dew Point Humidity Pressure Visibility Wind Dir Wind Speed Gust Speed Precip Events Conditions
12:15 AM 59.9 °F 51.3 °F 73% 29.90 in 10.0 mi South 12.7 mph - N/A   Clear
12:35 AM 59.9 °F 51.1 °F 73% 29.90 in 10.0 mi SSE 12.7 mph - N/A   Clear
12:55 AM 59.7 °F 50.9 °F 73% 29.89 in 10.0 mi SSE 12.7 mph 19.6 mph N/A   Clear
1:15 AM 59.4 °F 50.5 °F 73% 29.89 in 10.0 mi SSE 10.4 mph - N/A   Clear
1:35 AM 59.2 °F 50.4 °F 73% 29.89 in 10.0 mi SSE 11.5 mph 16.1 mph N/A   Clear
1:55 AM 59.2 °F 50.0 °F 72% 29.88 in 10.0 mi SSE 11.5 mph 17.3 mph N/A   Clear
2:15 AM 59.0 °F 50.0 °F 72% 29.88 in 10.0 mi SSE 11.5 mph 17.3 mph N/A   Clear
2:35 AM 58.6 °F 49.5 °F 72% 29.87 in 10.0 mi SSE 11.5 mph 18.4 mph N/A   Clear
2:55 AM 58.6 °F 49.1 °F 71% 29.87 in 10.0 mi SSE 11.5 mph - N/A   Clear
3:15 AM 58.5 °F 48.6 °F 70% 29.86 in 10.0 mi SSE 13.8 mph - N/A   Clear
3:35 AM 58.1 °F 48.4 °F 70% 29.86 in 10.0 mi SSE 11.5 mph 16.1 mph N/A   Clear
3:55 AM 57.9 °F 48.4 °F 71% 29.85 in 10.0 mi SSE 10.4 mph 16.1 mph N/A   Clear
4:15 AM 57.6 °F 48.4 °F 71% 29.85 in 10.0 mi SSE 9.2 mph - N/A   Clear
4:35 AM 57.2 °F 48.6 °F 73% 29.85 in 10.0 mi SSE 11.5 mph 17.3 mph N/A   Clear
4:55 AM 57.2 °F 48.6 °F 73% 29.85 in 10.0 mi SSE 11.5 mph - N/A   Clear
5:15 AM 57.4 °F 48.4 °F 72% 29.85 in 10.0 mi SSE 12.7 mph - N/A   Clear
5:35 AM 57.2 °F 48.4 °F 72% 29.85 in 10.0 mi SE 13.8 mph 19.6 mph N/A   Clear
5:55 AM 57.2 °F 48.4 °F 72% 29.84 in 10.0 mi SE 11.5 mph - N/A   Mostly Cloudy
6:15 AM 56.7 °F 48.6 °F 74% 29.84 in 10.0 mi SSE 10.4 mph - N/A   Mostly Cloudy
6:35 AM 56.8 °F 48.6 °F 74% 29.84 in 10.0 mi SSE 10.4 mph 16.1 mph N/A   Scattered Clouds
6:55 AM 57.2 °F 48.7 °F 73% 29.85 in 10.0 mi SSE 9.2 mph - N/A   Scattered Clouds
7:15 AM 57.4 °F 49.1 °F 74% 29.85 in 10.0 mi SSE 8.1 mph - N/A   Scattered Clouds
7:35 AM 58.1 °F 49.3 °F 72% 29.85 in 10.0 mi SSE 12.7 mph 16.1 mph N/A   Mostly Cloudy
7:55 AM 58.6 °F 50.5 °F 74% 29.84 in 10.0 mi South 11.5 mph 17.3 mph N/A   Scattered Clouds
8:15 AM 59.0 °F 52.7 °F 80% 29.83 in 10.0 mi South 8.1 mph - N/A   Scattered Clouds
8:35 AM 59.7 °F 54.7 °F 83% 29.86 in 10.0 mi South 11.5 mph - N/A Thunderstorm Scattered Clouds
8:55 AM 59.0 °F 55.9 °F 90% 29.85 in 10.0 mi South 16.1 mph 23.0 mph N/A   Scattered Clouds
9:15 AM 59.0 °F 56.8 °F 93% 29.83 in 10.0 mi South 18.4 mph 24.2 mph N/A   Scattered Clouds
9:35 AM 59.2 °F 57.6 °F 94% 29.83 in 5.0 mi South 17.3 mph 26.5 mph N/A Rain , Thunderstorm Rain
9:55 AM 58.3 °F 56.1 °F 93% 29.83 in 5.0 mi SSE 27.6 mph 34.5 mph 0.06 in Rain Light Rain
10:35 AM 56.7 °F 54.7 °F 93% 29.84 in 10.0 mi SSE 17.3 mph 25.3 mph N/A   Overcast
10:55 AM 57.4 °F 55.4 °F 93% 29.83 in 10.0 mi SSE 17.3 mph 25.3 mph N/A   Mostly Cloudy
11:15 AM 58.1 °F 55.6 °F 91% 29.84 in 10.0 mi SSE 15.0 mph 21.9 mph N/A   Mostly Cloudy
11:35 AM 59.0 °F 55.9 °F 90% 29.84 in 10.0 mi SSE 16.1 mph 20.7 mph N/A   Mostly Cloudy
11:55 AM 61.2 °F 56.5 °F 85% 29.83 in 10.0 mi SSE 13.8 mph 21.9 mph N/A   Scattered Clouds
12:15 PM 64.0 °F 57.6 °F 79% 29.83 in 10.0 mi South 20.7 mph 25.3 mph N/A   Clear
12:35 PM 63.9 °F 57.2 °F 79% 29.82 in 10.0 mi SSE 20.7 mph 28.8 mph N/A   Mostly Cloudy
1:15 PM 64.9 °F 57.2 °F 76% 29.80 in 10.0 mi South 23.0 mph 27.6 mph N/A   Overcast
1:35 PM 66.6 °F 58.1 °F 74% 29.78 in 10.0 mi SSE 18.4 mph 25.3 mph N/A   Overcast
1:55 PM 67.3 °F 57.9 °F 72% 29.78 in 10.0 mi South 17.3 mph 23.0 mph N/A   Mostly Cloudy
2:15 PM 66.4 °F 57.9 °F 74% 29.77 in 10.0 mi SSE 18.4 mph 26.5 mph N/A   Overcast
2:35 PM 66.4 °F 58.1 °F 75% 29.76 in 10.0 mi SSE 13.8 mph - N/A   Overcast
2:55 PM 67.1 °F 58.3 °F 73% 29.75 in 10.0 mi SSE 18.4 mph 27.6 mph N/A   Overcast
3:15 PM 68.0 °F 58.6 °F 72% 29.75 in 10.0 mi SSE 16.1 mph 21.9 mph N/A   Overcast
3:35 PM 68.0 °F 58.6 °F 72% 29.74 in 10.0 mi SSE 12.7 mph 23.0 mph N/A   Overcast
3:55 PM 67.8 °F 58.5 °F 72% 29.74 in 10.0 mi SSE 9.2 mph 21.9 mph N/A Thunderstorm Overcast
4:15 PM 67.1 °F 58.1 °F 73% 29.73 in 10.0 mi SSE 18.4 mph - N/A   Overcast
4:35 PM 66.7 °F 58.3 °F 74% 29.73 in 10.0 mi SSE 12.7 mph - N/A   Overcast
4:55 PM 66.7 °F 58.5 °F 75% 29.73 in 10.0 mi SSE 12.7 mph 18.4 mph N/A   Overcast
5:15 PM 66.4 °F 58.3 °F 75% 29.73 in 10.0 mi SE 12.7 mph 18.4 mph N/A   Overcast
5:35 PM 66.2 °F 57.6 °F 74% 29.73 in 10.0 mi South 16.1 mph 23.0 mph N/A   Overcast
5:55 PM 65.7 °F 57.7 °F 76% 29.74 in 10.0 mi SSE 11.5 mph 19.6 mph N/A   Overcast
6:15 PM 65.3 °F 57.7 °F 76% 29.75 in 10.0 mi SSE 10.4 mph 18.4 mph N/A   Overcast
6:35 PM 64.9 °F 57.6 °F 77% 29.75 in 10.0 mi SSE 11.5 mph 16.1 mph N/A   Overcast
6:55 PM 64.6 °F 57.7 °F 78% 29.76 in 10.0 mi SSE 11.5 mph - N/A   Overcast
7:15 PM 64.6 °F 58.1 °F 79% 29.76 in 10.0 mi SSE 10.4 mph - N/A   Overcast
7:35 PM 64.6 °F 58.1 °F 79% 29.76 in 10.0 mi SSE 10.4 mph 18.4 mph N/A   Overcast
7:55 PM 64.4 °F 58.1 °F 80% 29.77 in 10.0 mi SSE 10.4 mph 16.1 mph N/A   Overcast
8:15 PM 64.0 °F 58.3 °F 82% 29.77 in 10.0 mi SE 10.4 mph - N/A   Overcast
8:35 PM 64.0 °F 58.3 °F 82% 29.78 in 10.0 mi SSE 11.5 mph - N/A   Overcast
8:55 PM 64.4 °F 58.1 °F 80% 29.79 in 10.0 mi SE 9.2 mph - N/A   Overcast
9:15 PM 64.4 °F 57.7 °F 79% 29.80 in 10.0 mi SSE 13.8 mph 19.6 mph N/A   Overcast
9:35 PM 64.0 °F 57.7 °F 80% 29.80 in 10.0 mi SE 10.4 mph 16.1 mph N/A   Overcast
9:55 PM 63.9 °F 57.4 °F 79% 29.80 in 10.0 mi SE 10.4 mph 18.4 mph N/A   Overcast
10:15 PM 63.5 °F 57.2 °F 80% 29.80 in 10.0 mi SE 12.7 mph - N/A   Overcast
10:35 PM 63.3 °F 56.5 °F 78% 29.80 in 10.0 mi SSE 9.2 mph - N/A   Overcast
10:55 PM 63.1 °F 56.3 °F 78% 29.80 in 10.0 mi SE 10.4 mph - N/A   Overcast
11:15 PM 63.1 °F 56.3 °F 78% 29.80 in 10.0 mi SE 8.1 mph 16.1 mph N/A   Overcast
11:35 PM 62.8 °F 55.8 °F 78% 29.80 in 10.0 mi SE 6.9 mph - N/A   Overcast
11:55 PM 62.6 °F 55.8 °F 78% 29.79 in 10.0 mi SE 6.9 mph - N/A   Overcast